{"data":{"norad_id":48483,"intl_designator":"2021-040BH","name":"STARLINK-2531","alt_names":[],"object_type":"PAYLOAD","status":"ACTIVE","operator":null,"country":"US","launch_date":"2021-05-09","launch_site_code":"AFETR","launch_vehicle":null,"mission":null,"orbit_class":"UNKNOWN","rcs_meters":null,"size_class":null,"mass_kg":null,"dimensions":null,"purposes":["comms"],"wikipedia_slug":null,"has_3d_model":false,"image_url":null,"decayed_at":null,"tle_current":{"epoch":"2026-09-20T00:01:52.038336Z","epoch_age_seconds":79407,"freshness":"FRESH","line1":"1 48483U 21040BH  26263.00129674 -.00005433  00000+0 -16339-3 0  9993","line2":"2 48483  53.1599   9.7979 0001461  84.3493 275.7675 15.31708181296231","mean_motion":15.31708181,"eccentricity":0.0001461,"inclination_deg":53.1599,"raan_deg":9.7979,"arg_perigee_deg":84.3493,"mean_anomaly_deg":275.7675,"bstar":-0.00016339,"rev_number":29623,"period_min":94.012685827654,"perigee_km":469.71499083284,"apogee_km":471.71622556496,"semimajor_km":6848.8526081989,"source":"CELESTRAK","updated_at":"2026-09-20T09:00:39.131346Z"}}}